Preview of NWS' New Version of Forecast
This preview is not operational and should not be used for support decisions.

Regional Weather Roundup (RWR)

Issued by Gray - Portland, ME (GYX)

                            
000
ASUS41 KGYX 251305
RWRGYX
WEATHER ROUNDUP FOR MAINE AND NEW HAMPSHIRE
NATIONAL WEATHER SERVICE GRAY ME
900 AM EDT TUE JUN 25 2019

MEZ002-005-006-010-012-015-018-020-021-024-026-027-029-251400-
MAINE
  
CITY           SKY/WX    TMP DP  RH WIND       PRES   REMARKS
PORTLAND       PTSUNNY   62  55  77 E13       29.96S                  
SANFORD        FAIR      64  58  80 VRB7      29.94S                  
BAR HARBOR     FAIR      65  50  58 VRB3      30.00S                  
WISCASSET      FAIR      67  52  58 E7        29.98F                  
ROCKLAND       FAIR      62  52  69 E7        29.99S                  
FRYEBURG       FAIR      64  52  64 CALM      29.96S                  
LEWISTONAUBURN FAIR      64  54  69 E3        29.96F                  
AUGUSTA        FAIR      66  51  58 E5        29.98S                  
WATERVILLE     FAIR      65  51  60 CALM      29.95F                  
BANGOR         FAIR      68  50  52 SE5       29.99S                  
GREENVILLE       N/A     64  45  49 SE8       29.97S                  
MILLINOCKET    FAIR      64  45  49 E6        30.00S                  
HOULTON        FAIR      67  46  47 SE6       29.99F                  
PRESQUE ISLE   FAIR      64  49  57 E3        30.00F                  
FRENCHVILLE    FAIR      62  43  49 VRB6      29.99F                  
CARIBOU        FAIR      62  47  57 SE6       29.99F                  
$$

NHZ002-005-008-009-011-012-014-251400-
NEW HAMPSHIRE
  
CITY           SKY/WX    TMP DP  RH WIND       PRES   REMARKS
PORTSMOUTH     CLOUDY    64  59  84 E7        29.91S                  
ROCHESTER      FAIR      63  56  78 E3        29.93S                  
NASHUA         CLOUDY    65  59  81 CALM      29.92S                  
MANCHESTER     CLOUDY    65  57  75 N3        29.91R                  
CONCORD        CLOUDY    63  54  72 CALM      29.93R                  
LACONIA        FAIR      62  54  74 E9        29.94R                  
PLYMOUTH       CLOUDY    62  53  72 CALM      29.93F                  
BERLIN         FAIR      63  50  62 N3        29.93F                  
WHITEFIELD     PTSUNNY   68  53  58 CALM      29.89S                  
JAFFREY        CLOUDY    62  53  72 VRB3      29.92S                  
KEENE          CLOUDY    65  58  78 CALM      29.89S                  
LEBANON        PTSUNNY   64  53  67 CALM      29.87F                  
MT WASHINGTON  PTSUNNY   48  39  71 S25         N/A                   
$$

VTZ005-007-008-251400-
VERMONT
  
CITY           SKY/WX    TMP DP  RH WIND       PRES   REMARKS
ST JOHNSBURY     N/A     62  51  67 MISG      29.87F                  
MONTPELIER     LGT RAIN  58  54  86 CALM      29.91F                  
BURLINGTON     PTSUNNY   71  55  56 VRB3      29.78S                  
$$

MAZ007-012-024-CTZ003-RIZ002-NYZ038-NYZ072-251400-
SOUTHERN NEW ENGLAND AND NY
  
CITY           SKY/WX    TMP DP  RH WIND       PRES   REMARKS
BOSTON         CLOUDY    68  61  78 E6        29.91R                  
WORCESTER      FAIR      63  57  81 E5        29.92R                  
NANTUCKET      FOG       62  62 100 SE10      29.94S VSB 3/4          
PROVIDENCE     CLOUDY    70  66  87 S9        29.91S                  
HARTFORD       CLOUDY    70  63  78 CALM      29.87R                  
ALBANY         LGT RAIN  70  65  84 S13G20    29.80F                  
NEW YORK CITY  CLOUDY    74  70  87 SE7       29.82S                  
$$

ANZ081-ANZ082-ANZ150-NHZ014-MEZ023>029-251400-
COASTAL MARINE OBSERVATIONS
  
STATION/POSITION TIME  TEMP    WIND        PRES    WAVE
                       AIR SEA DIR/SP/G            HT/PER
                 (UTC) (F)     (DEG/KT/KT) (MB)    (FT/S)
ISLE OF SHOALS   1200   59     120/ 10/ 11 1012.6S
JEFFREYS LEDGE   1238      58                N/A     2/ 4
CASHES LEDGE BUO 1250   57 55  140/ 10/ 12 1014.9F   1/ 8
GEORGES BANK BUO 1240   56 53  130/  4/  4 1017.2F
$$

.............KEY..............
   WCI - WIND CHILL
   TC  - TEMPERATURE IN CELSIUS
   VSB - VISIBILITY IN MILES
   HX  - HEAT INDEX
   FAIR- INDICATES FEW OR NO CLOUDS BELOW 12,000 FT, WITH NO 
         SIGNIFICANT WEATHER AND/OR OBSTRUCTIONS TO VISIBILITY.